When you browse on this site, cookies collect data to enhance your experience and personalize the content and advertising you see.
Visit our Privacy Policy to learn more. By continuing to use the site, you agree to this use of cookies and data.
  • In Österreich
  • Länderverzeichnis
  • Für 7 Tage
  • Wassertemperatur
  • Satellitenkarten
  • Wetterkarte
  • News
  • Widgets
  • user-avatar
    Anmelden

    Stündliche Wetter Spring Valley

    Heute, 20 April, Samstag

    Zeit Temperatur Niederschläge Wind Luftdruck Luftfeuchtigkeit
    00:00 +20°C° 2 mm 6 m/S 742 mmHg 89%
    01:00 +19°C° 0 mm 6 m/S 742 mmHg 90%
    02:00 +19°C° 1.3 mm 5 m/S 742 mmHg 90%
    03:00 +19°C° 1.3 mm 5 m/S 742 mmHg 90%
    04:00 +19°C° 1.3 mm 5 m/S 742 mmHg 90%
    05:00 +19°C° 2.8 mm 5 m/S 743 mmHg 90%
    06:00 +19°C° 2.8 mm 5 m/S 743 mmHg 90%
    07:00 +18°C° 0 mm 4 m/S 743 mmHg 93%
    08:00 +19°C° 3.1 mm 6 m/S 743 mmHg 91%
    09:00 +18°C° 3.1 mm 7 m/S 743 mmHg 89%
    10:00 +20°C° 3.1 mm 8 m/S 743 mmHg 87%
    11:00 +20°C° 0.2 mm 7 m/S 743 mmHg 87%
    12:00 +20°C° 0.2 mm 7 m/S 743 mmHg 87%
    13:00 +18°C° 0.2 mm 7 m/S 743 mmHg 87%
    14:00 +20°C° 0 mm 6 m/S 743 mmHg 83%
    15:00 +20°C° 0 mm 6 m/S 743 mmHg 79%
    16:00 +20°C° 0 mm 6 m/S 743 mmHg 74%
    17:00 +19°C° 0 mm 5 m/S 744 mmHg 71%
    18:00 +17°C° 0 mm 5 m/S 744 mmHg 67%
    19:00 +16°C° 0 mm 5 m/S 744 mmHg 64%
    20:00 +15°C° 0 mm 4 m/S 745 mmHg 64%
    21:00 +14°C° 0 mm 4 m/S 745 mmHg 64%
    22:00 +14°C° 0 mm 3 m/S 746 mmHg 64%
    23:00 +14°C° 0 mm 2 m/S 746 mmHg 66%

    Morgen, 21 April, Sonntag

    Zeit Temperatur Niederschläge Wind Luftdruck Luftfeuchtigkeit
    00:00 +14°C° 0 mm 2 m/S 747 mmHg 69%
    01:00 +14°C° 0 mm 1 m/S 747 mmHg 72%
    02:00 +13°C° 0 mm 1 m/S 747 mmHg 75%
    03:00 +13°C° 0 mm 1 m/S 747 mmHg 77%
    04:00 +13°C° 0 mm 1 m/S 747 mmHg 79%
    05:00 +13°C° 0 mm 1 m/S 747 mmHg 78%
    06:00 +14°C° 0 mm 2 m/S 748 mmHg 77%
    07:00 +14°C° 0 mm 2 m/S 748 mmHg 76%
    08:00 +15°C° 0 mm 2 m/S 749 mmHg 67%
    09:00 +17°C° 0 mm 2 m/S 749 mmHg 58%
    10:00 +18°C° 0 mm 3 m/S 749 mmHg 49%
    11:00 +18°C° 0 mm 3 m/S 749 mmHg 46%
    12:00 +19°C° 0 mm 3 m/S 749 mmHg 43%
    13:00 +20°C° 0 mm 3 m/S 749 mmHg 40%
    14:00 +19°C° 0 mm 3 m/S 749 mmHg 41%
    15:00 +19°C° 0 mm 3 m/S 749 mmHg 43%
    16:00 +19°C° 0 mm 3 m/S 750 mmHg 44%
    17:00 +18°C° 0 mm 3 m/S 750 mmHg 48%
    18:00 +16°C° 0 mm 3 m/S 750 mmHg 52%
    19:00 +14°C° 0 mm 3 m/S 751 mmHg 56%
    20:00 +14°C° 0 mm 2 m/S 751 mmHg 60%
    21:00 +13°C° 0 mm 1 m/S 751 mmHg 64%
    22:00 +12°C° 0 mm 1 m/S 751 mmHg 67%
    23:00 +12°C° 0 mm 1 m/S 751 mmHg 69%

    übermorgen, 22 April, Montag

    Zeit Temperatur Niederschläge Wind Luftdruck Luftfeuchtigkeit
    00:00 +12°C° 0 mm 1 m/S 751 mmHg 72%
    01:00 +10°C° 0 mm 0 m/S 751 mmHg 74%
    02:00 +10°C° 0 mm 0 m/S 751 mmHg 75%
    03:00 +11°C° 0 mm 1 m/S 751 mmHg 77%
    04:00 +10°C° 0 mm 1 m/S 751 mmHg 79%
    05:00 +11°C° 0 mm 1 m/S 751 mmHg 76%
    06:00 +12°C° 0 mm 1 m/S 751 mmHg 73%
    07:00 +13°C° 0 mm 2 m/S 751 mmHg 70%
    08:00 +14°C° 0 mm 2 m/S 751 mmHg 65%
    09:00 +16°C° 0 mm 2 m/S 751 mmHg 60%
    10:00 +18°C° 0 mm 2 m/S 751 mmHg 54%
    11:00 +19°C° 0 mm 2 m/S 751 mmHg 51%
    12:00 +21°C° 0 mm 2 m/S 751 mmHg 48%
    13:00 +23°C° 0 mm 2 m/S 750 mmHg 44%
    14:00 +23°C° 0.2 mm 2 m/S 750 mmHg 46%
    15:00 +23°C° 0.2 mm 2 m/S 750 mmHg 49%
    16:00 +22°C° 0.2 mm 1 m/S 749 mmHg 51%
    17:00 +21°C° 0.1 mm 1 m/S 750 mmHg 56%
    18:00 +20°C° 0.1 mm 1 m/S 750 mmHg 62%
    19:00 +18°C° 0.1 mm 1 m/S 750 mmHg 68%
    20:00 +18°C° 0 mm 1 m/S 750 mmHg 73%
    21:00 +16°C° 0 mm 1 m/S 751 mmHg 77%
    22:00 +15°C° 0 mm 1 m/S 751 mmHg 81%
    23:00 +15°C° 0 mm 1 m/S 751 mmHg 83%

    23 April, Dienstag

    Zeit Temperatur Niederschläge Wind Luftdruck Luftfeuchtigkeit
    00:00 +14°C° 0 mm 2 m/S 751 mmHg 85%
    01:00 +14°C° 0 mm 2 m/S 751 mmHg 87%
    02:00 +13°C° 0 mm 1 m/S 751 mmHg 88%
    03:00 +13°C° 0 mm 1 m/S 750 mmHg 88%
    04:00 +13°C° 0 mm 1 m/S 750 mmHg 89%
    05:00 +13°C° 0 mm 1 m/S 751 mmHg 86%
    06:00 +14°C° 0 mm 1 m/S 751 mmHg 83%
    07:00 +15°C° 0 mm 1 m/S 751 mmHg 80%
    08:00 +18°C° 0 mm 1 m/S 751 mmHg 72%
    09:00 +20°C° 0 mm 1 m/S 751 mmHg 63%
    10:00 +23°C° 0 mm 1 m/S 751 mmHg 54%
    11:00 +24°C° 0 mm 1 m/S 750 mmHg 50%
    12:00 +25°C° 0 mm 2 m/S 750 mmHg 45%
    13:00 +26°C° 0 mm 2 m/S 750 mmHg 40%
    14:00 +26°C° 0 mm 3 m/S 749 mmHg 40%
    15:00 +26°C° 0 mm 3 m/S 748 mmHg 40%
    16:00 +26°C° 0 mm 3 m/S 747 mmHg 41%
    17:00 +25°C° 0 mm 3 m/S 747 mmHg 47%
    18:00 +22°C° 0 mm 3 m/S 747 mmHg 52%
    19:00 +20°C° 0 mm 3 m/S 747 mmHg 58%
    20:00 +20°C° 0 mm 3 m/S 746 mmHg 61%
    21:00 +19°C° 0 mm 3 m/S 746 mmHg 63%
    22:00 +19°C° 0 mm 3 m/S 746 mmHg 66%
    23:00 +19°C° 0.2 mm 3 m/S 745 mmHg 66%

    24 April, Mittwoch

    Zeit Temperatur Niederschläge Wind Luftdruck Luftfeuchtigkeit
    00:00 +19°C° 0.2 mm 4 m/S 745 mmHg 65%
    01:00 +19°C° 0.2 mm 4 m/S 744 mmHg 65%
    02:00 +19°C° 0.4 mm 4 m/S 744 mmHg 69%
    03:00 +18°C° 0.4 mm 4 m/S 743 mmHg 74%
    04:00 +18°C° 0.4 mm 4 m/S 743 mmHg 78%
    05:00 +18°C° 0.1 mm 4 m/S 743 mmHg 78%
    06:00 +18°C° 0.1 mm 4 m/S 744 mmHg 77%
    07:00 +19°C° 0.1 mm 4 m/S 744 mmHg 76%
    08:00 +18°C° 0 mm 4 m/S 744 mmHg 68%
    09:00 +17°C° 0 mm 5 m/S 744 mmHg 61%
    10:00 +17°C° 0 mm 5 m/S 745 mmHg 53%
    11:00 +19°C° 0 mm 5 m/S 745 mmHg 49%
    12:00 +20°C° 0 mm 5 m/S 744 mmHg 44%
    13:00 +20°C° 0 mm 5 m/S 744 mmHg 40%
    14:00 +20°C° 0 mm 5 m/S 744 mmHg 38%
    15:00 +21°C° 0 mm 5 m/S 744 mmHg 37%
    16:00 +21°C° 0 mm 5 m/S 744 mmHg 35%
    17:00 +19°C° 0 mm 4 m/S 745 mmHg 41%
    18:00 +18°C° 0 mm 4 m/S 745 mmHg 46%
    19:00 +15°C° 0 mm 4 m/S 746 mmHg 52%
    20:00 +14°C° 0 mm 4 m/S 746 mmHg 55%
    21:00 +12°C° 0 mm 4 m/S 746 mmHg 58%
    22:00 +11°C° 0 mm 4 m/S 747 mmHg 61%
    23:00 +10°C° 0 mm 4 m/S 747 mmHg 63%

    25 April, Donnerstag

    Zeit Temperatur Niederschläge Wind Luftdruck Luftfeuchtigkeit
    00:00 +10°C° 0 mm 3 m/S 747 mmHg 64%
    01:00 +9°C° 0 mm 3 m/S 747 mmHg 66%
    02:00 +8°C° 0 mm 3 m/S 747 mmHg 67%
    03:00 +8°C° 0 mm 3 m/S 747 mmHg 67%
    04:00 +8°C° 0 mm 2 m/S 748 mmHg 68%
    05:00 +8°C° 0 mm 2 m/S 748 mmHg 65%
    06:00 +9°C° 0 mm 2 m/S 748 mmHg 61%
    07:00 +9°C° 0 mm 2 m/S 749 mmHg 58%
    08:00 +12°C° 0 mm 2 m/S 749 mmHg 52%
    09:00 +14°C° 0 mm 2 m/S 748 mmHg 45%
    10:00 +16°C° 0 mm 2 m/S 748 mmHg 39%
    11:00 +18°C° 0 mm 2 m/S 748 mmHg 35%
    12:00 +19°C° 0 mm 2 m/S 747 mmHg 31%
    13:00 +21°C° 0 mm 2 m/S 747 mmHg 27%
    14:00 +21°C° 0 mm 2 m/S 747 mmHg 27%
    15:00 +21°C° 0 mm 2 m/S 747 mmHg 27%
    16:00 +23°C° 0 mm 2 m/S 746 mmHg 27%
    17:00 +20°C° 0 mm 2 m/S 746 mmHg 32%
    18:00 +19°C° 0 mm 1 m/S 747 mmHg 38%
    19:00 +18°C° 0 mm 1 m/S 747 mmHg 43%
    20:00 +16°C° 0 mm 1 m/S 747 mmHg 46%
    21:00 +15°C° 0 mm 1 m/S 747 mmHg 50%
    22:00 +14°C° 0 mm 1 m/S 747 mmHg 54%
    23:00 +12°C° 0 mm 0 m/S 747 mmHg 57%
    Mehr zeigen